Search for airport 
image banner adimage banner adimage banner ad
image banner ad

6PN5 - Sam's Field

Located in Bradford, United States

ICAO - 6PN5, IATA -

Data provided by Airmate  

General information

Coordinates: N41°54'27" W78°37'44"
Elevation is 1540 feet MSL.
Magnetic variation is -10° East
View others Airports in Pennsylvania

Operational data

Special qualification required
Current time UTC:
Current local time:
Weather at : KBFD - Bradford Rgnl ( 12 km )
METAR: KBFD 132120Z AUTO 27004KT 10SM VCTS FEW048 SCT065 26/15 A2985 RMK AO2 T02610150
TAF: KBFD 132113Z 1321/1418 VRB05KT P6SM VCTS SCT050CB SCT070 FM132300 31004KT P6SM SCT100 FM140600 VRB02KT 3SM BR OVC005 FM141200 27008G15KT P6SM BKN050
View NOTAMs / SUP AIP / TFR affecting this airport [VIEW]
Communications frequencies: [VIEW]

Runways:

RWY identifierQFULength (ft)Width (ft)SurfaceLDA (ft)
091300100GRASS
271300100GRASS

Airport contact information

Address: Bradford United States

Satellite view of 6PN5